Grayling, MI

6:52 AM EDT on April 23, 2017 (GMT -0400)
Grayling

Weather History for KGOV - September, 2012

Change the Weather History Date:

Friday, September 21, 2012

  Actual Average (KHTL) Record (KHTL)
Temperature  
Mean Temperature 50 °F -  
Max Temperature 62 °F 61 °F 88 °F (1931)
Min Temperature 37 °F 44 °F 30 °F (1973)
Degree Days  
Heating Degree Days 16    
Moisture  
Dew Point 46 °F    
Average Humidity 84    
Maximum Humidity 100    
Minimum Humidity 54    
Precipitation  
Precipitation 0.00 in - - ()
Sea Level Pressure  
Sea Level Pressure 29.82 in    
Wind  
Wind Speed 3 mph (SSW)    
Max Wind Speed 13 mph    
Max Gust Speed 22 mph    
Visibility 10 miles    
Events Rain    
Averages and records for this station are not official NWS values.
T = Trace of Precipitation, MM = Missing Value Source: NWS Daily Summary

Daily Weather History Graph

Daily Weather History Graph

Search for Another Location

Airport or City:

Trip Planner

Search our weather history database for the weather conditions in past years. The results will help you decide how hot, cold, wet, or windy it might be!

Date:

Astronomy

Sep. 21, 2012 Rise Set
Actual Time 7:25 AM EDT 7:37 PM EDT
Civil Twilight 6:56 AM EDT 8:06 PM EDT
Nautical Twilight 6:21 AM EDT 8:40 PM EDT
Astronomical Twilight 5:46 AM EDT 9:15 PM EDT
Moon 2:01 PM EDT (9/21) 11:22 PM EDT (9/21)
Length of Visible Light 13h 10m
Length of Day
12h 11m
Waxing Crescent, 37% of the Moon is Illuminated
Sep 21
Waxing Crescent
Sep 22
First Quarter
Sep 29
Full
Oct 8
Last Quarter
Oct 15
New

Hourly Weather History & Observations

Time (EDT) Temp. Windchill Dew Point Humidity Pressure Visibility Wind Dir Wind Speed Gust Speed Precip Events Conditions
12:34 AM 50.0 °F - 50.0 °F 100% 29.86 in 10.0 mi Calm Calm - N/A   Mostly Cloudy
12:54 AM 47.7 °F - 47.7 °F 100% 29.86 in 10.0 mi Calm Calm - N/A   Scattered Clouds
1:14 AM 47.3 °F - 47.3 °F 100% 29.86 in 10.0 mi Calm Calm - N/A   Clear
1:34 AM 46.2 °F 45.0 °F 46.2 °F 100% 29.84 in 10.0 mi West 3.5 mph - N/A   Clear
1:54 AM 46.0 °F - 46.0 °F 100% 29.85 in 10.0 mi Calm Calm - N/A   Clear
2:14 AM 44.8 °F 43.3 °F 44.8 °F 100% 29.85 in 10.0 mi SSW 3.5 mph - N/A   Clear
2:35 AM 47.3 °F - 47.3 °F 100% 29.85 in 10.0 mi Calm Calm - N/A   Clear
2:55 AM 47.3 °F - 47.3 °F 100% 29.85 in 10.0 mi WSW 3.5 mph - N/A   Clear
3:15 AM 47.3 °F - 47.3 °F 100% 29.85 in 10.0 mi SSW 4.6 mph - N/A   Clear
3:30 AM 47.3 °F - 47.3 °F 100% 29.85 in 10.0 mi SSW 3.5 mph - N/A   Clear
3:50 AM 45.0 °F 43.5 °F 45.0 °F 100% 29.85 in 10.0 mi SW 3.5 mph - N/A   Clear
4:10 AM 46.9 °F - 46.9 °F 100% 29.86 in 10.0 mi Calm Calm - N/A   Clear
4:30 AM 44.8 °F 43.3 °F 44.8 °F 100% 29.86 in 10.0 mi SW 3.5 mph - N/A   Clear
4:50 AM 44.6 °F - 44.6 °F 100% 29.86 in 10.0 mi Calm Calm - N/A   Clear
5:10 AM 42.3 °F - 42.3 °F 100% 29.86 in 5.0 mi Calm Calm - N/A   Clear
5:30 AM 41.0 °F - 41.0 °F 100% 29.86 in 10.0 mi Calm Calm - N/A   Clear
5:51 AM 39.4 °F - 39.4 °F 100% 29.86 in 10.0 mi Calm Calm - N/A   Clear
6:11 AM 37.0 °F - 37.0 °F 100% 29.86 in 5.0 mi Calm Calm - N/A   Clear
6:31 AM 37.8 °F - 37.8 °F 100% 29.86 in 10.0 mi Calm Calm - N/A   Clear
6:51 AM 39.6 °F - 39.6 °F 100% 29.86 in 10.0 mi Calm Calm - N/A   Clear
7:11 AM 37.0 °F - 37.0 °F 100% 29.87 in 10.0 mi Calm Calm - N/A   Clear
7:31 AM 37.0 °F - 37.0 °F 100% 29.87 in 10.0 mi Calm Calm - N/A   Clear
7:51 AM 37.0 °F - 37.0 °F 100% 29.87 in 7.0 mi Calm Calm - N/A   Clear
8:31 AM 39.6 °F - 39.6 °F 100% 29.87 in 10.0 mi Calm Calm - N/A   Clear
8:52 AM 40.5 °F - 40.5 °F 100% 29.87 in 10.0 mi Calm Calm - N/A   Clear
9:12 AM 43.7 °F - 43.7 °F 100% 29.86 in 10.0 mi Calm Calm - N/A   Clear
9:32 AM 47.7 °F - 47.7 °F 100% 29.85 in 10.0 mi Calm Calm - N/A   Clear
9:52 AM 50.4 °F - 50.4 °F 100% 29.85 in 10.0 mi Calm Calm - N/A   Mostly Cloudy
10:12 AM 54.9 °F - 52.3 °F 91% 29.85 in 10.0 mi South 5.8 mph - N/A   Scattered Clouds
10:32 AM 56.3 °F - 50.9 °F 82% 29.85 in 10.0 mi South 6.9 mph - N/A   Clear
10:52 AM 57.2 °F - 50.2 °F 77% 29.84 in 10.0 mi SW 8.1 mph 16.1 mph N/A   Scattered Clouds
11:12 AM 57.2 °F - 49.3 °F 75% 29.85 in 10.0 mi SSW 4.6 mph - N/A   Mostly Cloudy
11:33 AM 55.4 °F - 49.3 °F 80% 29.85 in 10.0 mi WSW 4.6 mph - N/A Rain Light Rain
11:53 AM 55.0 °F - 50.2 °F 84% 29.84 in 10.0 mi SW 4.6 mph - N/A   Overcast
12:13 PM 55.9 °F - 50.4 °F 82% 29.84 in 10.0 mi South 5.8 mph - N/A   Overcast
12:33 PM 57.4 °F - 50.9 °F 79% 29.83 in 10.0 mi South 8.1 mph - N/A   Overcast
12:53 PM 57.7 °F - 45.9 °F 65% 29.82 in 10.0 mi South 8.1 mph - N/A   Overcast
1:13 PM 60.4 °F - 46.8 °F 61% 29.81 in 10.0 mi SSW 5.8 mph 17.3 mph N/A   Scattered Clouds
1:33 PM 62.6 °F - 47.1 °F 57% 29.81 in 10.0 mi SSW 11.5 mph 16.1 mph N/A   Scattered Clouds
1:53 PM 61.2 °F - 46.2 °F 58% 29.80 in 10.0 mi South 10.4 mph 19.6 mph N/A   Mostly Cloudy
2:13 PM 59.9 °F - 46.4 °F 61% 29.80 in 10.0 mi South 12.7 mph 17.3 mph N/A   Overcast
2:33 PM 59.9 °F - 45.5 °F 59% 29.79 in 10.0 mi SSW 12.7 mph 21.9 mph N/A   Overcast
2:53 PM 59.9 °F - 43.7 °F 55% 29.79 in 10.0 mi SSW 11.5 mph 21.9 mph N/A   Overcast
3:14 PM 59.9 °F - 43.0 °F 54% 29.79 in 10.0 mi SSW 10.4 mph 18.4 mph N/A   Overcast
3:54 PM 59.9 °F - 44.4 °F 57% 29.78 in 10.0 mi SSW 8.1 mph - N/A   Overcast
4:14 PM 59.9 °F - 45.0 °F 58% 29.78 in 10.0 mi SSW 8.1 mph - N/A   Mostly Cloudy
4:34 PM 59.9 °F - 45.0 °F 58% 29.78 in 10.0 mi SW 9.2 mph - N/A   Mostly Cloudy
4:54 PM 59.9 °F - 46.0 °F 60% 29.78 in 10.0 mi SW 8.1 mph - N/A   Scattered Clouds
5:14 PM 59.9 °F - 46.4 °F 61% 29.78 in 10.0 mi WSW 9.2 mph - N/A   Scattered Clouds
5:34 PM 59.9 °F - 44.1 °F 56% 29.77 in 10.0 mi WSW 5.8 mph - N/A   Overcast
5:54 PM 57.9 °F - 44.1 °F 60% 29.77 in 10.0 mi West 5.8 mph - N/A   Overcast
6:15 PM 57.4 °F - 44.6 °F 62% 29.78 in 10.0 mi SW 3.5 mph - N/A   Overcast
6:35 PM 57.4 °F - 45.0 °F 63% 29.78 in 10.0 mi SW 3.5 mph - N/A   Overcast
6:50 PM 57.4 °F - 44.2 °F 62% 29.77 in 10.0 mi SSW 5.8 mph - N/A   Mostly Cloudy
7:10 PM 57.4 °F - 45.5 °F 65% 29.77 in 10.0 mi South 3.5 mph - N/A   Mostly Cloudy
7:30 PM 54.9 °F - 47.1 °F 75% 29.78 in 10.0 mi SW 3.5 mph - N/A   Overcast
7:50 PM 54.9 °F - 49.1 °F 81% 29.78 in 10.0 mi SW 4.6 mph - N/A   Scattered Clouds
8:10 PM 54.9 °F - 50.7 °F 86% 29.79 in 10.0 mi SSW 3.5 mph - N/A   Scattered Clouds
8:31 PM 52.3 °F - 49.5 °F 90% 29.79 in 10.0 mi South 3.5 mph - N/A   Clear
8:51 PM 51.3 °F - 49.1 °F 92% 29.78 in 10.0 mi SSW 3.5 mph - N/A   Clear
9:11 PM 51.1 °F - 49.3 °F 94% 29.78 in 10.0 mi SW 3.5 mph - N/A   Clear
9:31 PM 51.1 °F - 50.0 °F 96% 29.79 in 10.0 mi South 3.5 mph - N/A   Clear
9:51 PM 51.1 °F - 50.0 °F 96% 29.79 in 10.0 mi SSW 4.6 mph - N/A   Clear
10:11 PM 52.3 °F - 50.4 °F 93% 29.78 in 10.0 mi SSW 3.5 mph - N/A   Scattered Clouds
10:31 PM 52.3 °F - 49.3 °F 89% 29.78 in 10.0 mi SW 4.6 mph - N/A   Mostly Cloudy
10:51 PM 52.3 °F - 50.2 °F 92% 29.77 in 10.0 mi SSW 8.1 mph - N/A Rain Rain
11:12 PM 50.7 °F - 47.7 °F 89% 29.75 in 10.0 mi SSW 10.4 mph - N/A Rain Rain
11:32 PM 50.0 °F - 44.8 °F 82% 29.75 in 10.0 mi WSW 9.2 mph 16.1 mph N/A Rain Light Rain
11:52 PM 50.0 °F - 45.7 °F 85% 29.74 in 10.0 mi SW 5.8 mph - N/A   Overcast